RH
37 41 43 31 32 34 36 12 13 24 27 25 21 23 22 21 18 12 7 7 9 9 6 7 9 11 10 9 7 8 13 22 29 38 62 84 100 97 99 94 78 72 96 85 78 74 76 63 54
30 36 38 31 31 34 21 11 22 20 18 16 17 22 22 18 11 7 6 6 5 5 5 6 7 10 10 11 12 8 7 11 22 34 58 81 98 99 99 91 76 71 52 70 74 69 44 41 39
27 30 34 30 31 20 10 17 18 13 12 17 17 21 17 8 7 6 6 6 6 5 5 5 6 8 13 12 12 14 9 8 14 30 46 76 91 97 86 90 92 73 69 72 62 83 52 39 25
26 26 28 30 19 8 14 19 13 12 14 17 18 19 11 8 7 6 6 5 4 5 5 5 5 6 10 14 14 13 16 12 9 19 38 46 72 83 95 91 62 65 65 55 48 45 37 21 10
23 23 24 27 8 11 18 15 13 14 15 17 18 14 9 9 8 7 5 6 6 6 6 6 5 5 7 11 15 16 14 17 16 10 22 45 52 63 70 66 61 56 52 45 30 24 13 8 9
20 22 21 19 7 13 16 13 13 14 16 16 16 12 10 9 10 9 6 7 8 7 6 7 6 6 6 8 12 16 16 16 19 22 14 14 28 41 45 45 40 28 16 12 9 9 9 9 10
18 22 21 17 9 14 14 12 13 13 14 15 14 13 10 10 10 11 8 9 8 7 6 6 6 6 6 8 9 14 16 17 17 22 24 25 22 17 15 15 14 13 12 12 13 12 12 13 13
18 22 21 14 8 12 10 10 12 12 12 14 12 12 10 9 10 11 10 9 7 7 6 7 6 7 7 8 9 10 15 17 18 19 25 27 27 27 28 27 25 23 20 18 17 15 14 14 14
14 21 19 14 8 9 8 9 10 11 11 12 12 11 10 9 10 10 10 9 8 7 9 9 10 10 9 7 8 9 11 14 17 19 23 27 28 28 27 25 24 22 22 21 20 19 18 19 18
11 20 19 14 9 8 6 8 8 10 10 11 11 10 10 10 10 9 9 8 7 5 10 12 12 12 12 10 8 9 9 11 15 18 21 24 27 28 28 28 27 26 25 24 22 21 20 19 19
12 20 21 13 8 7 6 8 7 8 9 9 11 10 11 10 9 8 8 6 5 9 10 9 11 12 11 12 11 9 9 10 12 16 20 24 24 24 25 25 27 29 29 28 26 24 24 23 22
14 22 20 11 6 7 6 6 6 6 7 9 9 9 8 7 6 7 4 5 8 6 6 7 9 13 13 13 13 11 9 9 11 15 20 21 25 26 26 29 32 33 33 34 34 34 31 29 28
17 23 20 11 6 6 6 5 5 5 6 7 8 7 5 4 4 5 7 6 5 6 6 7 9 10 14 16 14 13 12 10 10 14 18 21 23 26 29 30 32 34 36 36 37 35 33 31 30
23 25 23 12 6 6 5 5 5 5 5 6 5 5 5 5 6 6 5 5 6 5 5 5 6 10 12 16 17 14 13 12 10 13 18 21 23 24 24 27 31 32 34 35 35 34 33 33 25
31 29 25 14 8 6 7 6 6 6 6 6 6 5 4 4 3 4 5 6 6 5 6 7 6 8 10 12 17 17 13 14 13 12 17 21 23 23 24 26 27 28 30 32 34 35 35 36 32
26 32 22 12 9 7 7 8 9 8 7 8 8 7 5 4 4 4 6 6 6 6 7 8 8 8 9 10 12 15 15 14 16 15 17 22 23 23 24 25 27 29 32 35 38 38 38 36 30
14 26 20 12 9 9 9 9 10 10 9 9 8 7 5 4 5 6 6 6 6 8 8 9 9 9 11 15 13 12 13 15 16 17 20 22 22 21 22 24 25 27 30 33 38 40 37 32 28
10 16 19 13 9 9 10 10 9 10 9 9 8 6 5 5 8 8 7 7 8 9 10 10 11 12 11 14 19 18 14 14 17 20 21 20 21 21 22 23 25 28 31 33 32 30 27 26 25
12 11 12 13 12 9 9 9 9 9 9 8 8 7 6 6 7 8 8 9 10 11 10 10 14 15 13 13 19 20 19 17 16 18 20 20 19 20 21 24 27 30 32 28 25 23 20 18 17
9 11 13 12 12 11 10 9 12 9 8 8 8 8 9 8 8 9 10 11 12 12 10 13 17 16 15 18 22 22 21 20 19 19 19 19 20 21 24 27 29 28 24 22 19 18 18 14 7
8 8 10 13 13 12 12 10 10 8 8 7 7 8 8 9 10 10 11 12 12 11 11 16 17 17 18 22 26 26 28 25 22 21 21 21 22 25 26 27 25 22 20 21 18 9 4 8 14
8 8 8 10 13 14 13 11 8 7 7 7 7 6 7 7 8 10 10 10 11 12 13 18 18 18 23 25 27 26 26 25 25 29 26 25 24 26 27 23 22 25 22 9 4 5 14 16 18
12 10 9 10 10 11 12 12 10 10 9 7 7 7 8 9 9 9 9 9 10 11 15 18 18 19 22 22 23 23 22 22 21 20 21 26 26 23 24 28 26 13 5 5 7 14 15 16 16
22 21 16 11 13 9 8 10 7 8 7 7 9 9 8 8 8 8 9 10 11 13 17 18 18 18 18 19 19 21 30 30 28 27 26 25 27 31 30 18 6 4 5 8 13 12 13 15 16
33 28 21 18 12 6 7 10 7 8 8 8 8 9 9 9 9 9 10 10 14 17 19 18 19 19 16 17 27 31 28 26 26 28 32 34 32 23 11 5 5 6 9 11 10 12 16 14 22
9 16 14 11 8 8 8 9 6 9 8 9 9 10 9 9 10 12 11 12 16 19 17 16 17 18 21 28 29 26 26 30 35 37 35 24 13 6 5 6 7 9 10 11 12 16 13 17 25
17 18 13 18 16 15 11 9 6 7 8 9 11 13 13 11 11 10 11 14 14 14 14 14 17 27 31 26 25 27 34 39 38 29 20 10 5 5 7 8 9 10 11 12 14 15 12 17 20
20 22 34 27 17 13 10 11 8 8 9 9 12 15 16 13 10 11 12 15 16 13 14 15 26 31 27 24 26 34 39 39 34 29 12 5 6 7 8 10 10 10 11 12 14 12 12 13 20
20 25 26 31 21 9 9 6 8 11 12 13 11 14 17 17 15 12 13 15 16 15 14 14 24 28 26 27 33 36 39 37 30 13 6 6 8 9 10 11 11 11 11 11 10 11 12 13 22
33 21 19 29 18 12 19 12 11 13 15 12 10 13 14 13 14 14 12 17 18 19 18 17 20 30 28 31 35 41 43 38 22 8 6 7 9 10 10 10 10 11 10 10 11 12 13 15 27
Wind_Speed
21 18 17 14 13 12 10 12 18 25 26 24 23 24 26 27 25 26 27 29 28 27 26 25 26 25 25 24 24 23 18 13 10 7 7 9 10 10 11 14 13 12 11 21 19 16 12 7 4
23 21 18 16 16 15 13 18 25 27 27 25 24 26 27 26 26 27 27 26 25 27 26 25 25 25 24 22 22 21 22 18 13 10 10 12 12 10 10 18 14 12 13 13 11 11 7 5 3
25 22 20 19 19 18 22 25 27 28 27 27 25 27 27 27 25 25 25 24 22 23 24 24 23 21 22 22 21 20 20 21 19 14 12 14 13 11 16 11 16 11 11 10 8 6 6 5 5
27 25 21 20 20 23 28 31 29 28 30 27 27 28 27 25 24 23 21 20 19 20 21 20 20 19 17 19 20 20 18 19 21 18 14 13 14 10 18 15 12 11 11 10 8 7 5 7 10
28 26 24 23 22 31 34 35 32 32 30 29 28 27 26 24 21 20 19 17 17 17 16 16 15 15 15 15 16 18 19 17 18 21 18 14 13 12 11 10 10 9 7 6 7 8 10 11 11
32 29 26 25 29 34 35 33 34 33 31 29 28 26 24 21 17 14 15 13 13 13 12 12 11 11 13 14 13 14 17 17 17 18 19 18 15 12 10 9 8 8 9 12 12 12 11 10 10
34 31 27 28 34 36 34 33 35 35 33 30 30 26 22 17 14 8 9 9 8 8 9 7 7 9 11 11 12 11 13 14 15 14 16 16 16 17 16 15 14 13 12 12 11 11 11 9 6
37 33 31 30 35 37 35 35 36 35 33 31 31 25 22 16 12 9 5 4 4 5 7 5 6 9 10 10 10 10 10 11 12 13 12 12 13 12 12 12 11 10 9 8 7 5 5 4 4
40 38 34 31 37 38 37 36 35 33 31 31 30 26 21 17 13 10 7 4 1 2 4 8 11 10 9 9 8 8 8 9 10 10 10 10 10 10 9 8 7 6 5 3 3 2 3 3 5
43 40 36 33 36 39 37 36 36 33 31 29 28 25 22 18 15 12 10 8 6 3 3 4 8 8 8 8 8 8 7 7 8 8 8 8 6 6 6 6 5 5 4 3 2 1 2 3 5
43 41 40 37 39 43 40 38 36 34 32 30 28 26 23 20 18 16 13 12 9 7 6 6 7 8 7 8 9 9 8 7 7 7 6 6 4 3 3 3 4 5 4 5 5 5 6 6 6
42 43 43 40 42 45 42 38 37 33 32 32 29 26 24 22 20 18 16 14 11 10 9 8 9 10 10 9 9 9 9 9 9 8 5 5 4 3 1 1 2 3 4 5 6 7 7 7 7
43 46 45 42 43 45 44 40 37 35 32 29 28 27 24 23 21 19 17 14 12 11 10 10 11 13 13 12 10 10 10 10 10 10 8 6 6 5 4 4 3 4 5 7 8 9 10 10 11
42 49 48 46 44 45 42 41 39 35 33 29 28 27 25 24 22 20 18 15 13 11 9 8 9 13 15 15 13 12 11 12 12 11 10 8 6 6 7 7 7 7 8 8 10 11 12 12 11
45 52 52 50 47 46 42 43 40 35 33 30 29 27 25 24 22 21 17 15 13 11 10 7 8 10 13 15 16 14 13 14 13 13 12 10 9 8 7 7 7 8 9 10 11 12 13 13 13
51 54 55 52 49 49 46 42 39 38 34 31 28 26 25 24 24 21 19 17 15 14 12 11 10 11 12 14 15 16 16 15 16 15 14 13 12 12 10 9 9 9 10 12 13 14 16 16 16
57 56 54 52 50 50 48 42 40 38 36 34 31 28 26 24 23 22 21 19 18 16 16 15 14 14 15 15 15 16 17 17 17 17 16 16 15 14 12 12 12 13 14 15 16 17 18 17 17
59 57 54 53 50 50 50 45 42 38 36 33 32 31 27 26 25 25 24 22 20 19 20 17 17 16 17 17 16 16 17 18 18 18 18 18 17 15 14 14 14 15 16 17 17 17 17 18 19
53 52 49 49 49 48 48 46 47 42 39 36 34 32 29 28 28 26 25 24 23 22 22 21 20 18 18 18 18 17 16 17 19 21 21 20 18 17 16 16 16 16 17 17 17 18 21 23 25
56 55 52 51 51 52 52 50 47 46 43 40 36 35 33 32 29 28 27 26 26 26 24 22 21 20 19 19 18 17 16 17 18 21 21 20 18 17 17 17 17 17 18 19 20 22 24 27 28
60 58 56 54 51 54 54 54 53 51 49 47 44 40 38 34 32 31 30 30 30 28 26 24 23 21 20 19 18 17 18 18 19 18 18 18 19 18 18 19 18 18 20 22 24 24 24 26 29
61 59 58 57 57 57 55 56 55 54 52 50 47 44 40 37 35 33 33 32 32 30 28 26 24 23 22 20 19 19 19 19 19 19 20 20 19 18 19 19 20 22 24 24 23 23 24 28 32
63 60 59 58 59 60 61 61 56 56 56 51 48 45 42 40 39 38 37 37 36 35 31 30 28 26 23 23 21 20 20 20 19 20 18 17 18 19 20 23 25 24 23 23 23 23 27 33 37
61 59 59 60 59 65 63 64 61 60 53 50 49 47 45 43 43 42 40 39 37 36 34 32 29 27 25 23 22 21 21 19 20 19 18 19 21 24 26 26 25 24 24 23 25 27 31 37 41
58 56 58 62 66 70 66 68 66 59 55 54 51 49 47 46 46 46 44 40 38 36 35 34 31 28 26 24 23 22 22 22 22 22 23 25 27 27 26 26 26 26 25 27 28 30 35 39 44
67 63 66 68 70 72 69 72 67 57 56 57 55 53 51 49 48 45 42 39 39 36 35 35 32 30 27 25 25 25 25 24 26 27 29 29 27 27 27 28 28 27 29 30 30 34 37 41 47
66 66 62 64 65 68 66 67 61 56 54 53 53 53 52 50 47 44 42 38 36 34 35 35 33 31 29 28 28 29 28 28 30 31 30 29 29 29 29 29 30 30 32 33 34 38 40 45 50
66 61 64 65 66 68 67 65 62 56 52 50 48 47 44 46 45 43 41 39 37 37 38 37 35 34 33 33 33 31 31 32 34 34 33 32 31 31 31 31 32 34 34 35 39 42 44 49 53
70 69 66 62 65 66 65 62 55 54 50 48 45 39 41 42 39 39 38 38 38 37 37 37 39 38 37 36 36 37 38 37 36 35 35 34 33 33 34 34 35 37 38 41 43 45 48 52 56
66 64 67 68 69 68 67 64 59 53 49 48 45 41 41 39 38 37 39 37 39 38 38 38 40 40 40 39 40 40 39 38 37 37 37 36 36 37 37 38 39 40 43 45 47 48 51 56 59
Wind_Direction
180 189 202 212 202 190 182 150 147 141 136 140 137 130 125 121 119 114 103 99 94 93 89 86 80 82 81 82 79 77 81 89 96 111 154 154 155 161 158 146 137 135 160 164 166 142 138 162 158
180 192 202 211 196 182 166 156 148 141 143 141 139 133 129 126 125 117 109 99 95 90 87 85 81 78 78 80 80 79 76 76 83 88 121 140 145 146 144 137 129 125 115 114 137 134 129 147 129
181 191 202 204 185 172 160 156 151 145 142 140 141 139 135 132 126 118 110 105 97 89 85 82 81 81 78 76 79 80 78 75 79 89 112 134 141 147 132 134 123 132 134 141 138 152 160 146 143
186 191 202 198 176 164 161 158 152 148 142 145 146 147 140 134 129 125 115 104 96 90 84 80 80 83 84 77 74 77 81 79 79 86 104 130 140 141 141 146 130 131 138 149 162 165 156 152 142
189 189 199 193 170 164 166 159 154 150 147 148 153 150 143 137 131 125 115 104 97 88 82 77 78 84 87 90 82 76 75 80 80 83 90 113 129 136 131 136 134 136 139 139 147 146 148 147 144
193 191 195 189 170 169 167 164 155 151 150 152 156 152 146 144 138 132 123 111 97 85 77 70 70 87 95 92 94 85 76 76 85 85 91 98 113 125 130 133 134 134 134 134 136 136 142 146 147
195 192 193 187 175 173 169 168 159 156 156 158 160 159 156 157 147 141 123 111 96 79 60 68 82 91 107 102 98 100 91 81 83 93 92 93 100 107 110 112 115 120 125 130 133 137 137 146 148
197 193 194 183 177 175 174 171 164 161 159 161 164 167 169 173 166 160 149 126 89 58 38 83 110 117 122 121 114 110 110 98 88 95 103 101 99 99 100 105 110 114 119 122 125 130 143 162 188
195 193 193 181 180 181 178 174 168 164 164 165 172 175 181 182 183 183 192 205 245 3 82 97 127 135 134 141 137 129 122 120 109 94 101 106 103 101 99 99 101 107 113 126 143 175 215 241 254
195 190 191 183 184 187 180 176 173 171 169 174 178 180 189 193 197 202 218 224 244 258 177 142 144 150 157 164 162 157 151 138 129 113 114 113 106 96 86 77 66 59 51 43 26 343 295 294 302
193 186 191 186 185 189 182 182 176 178 175 180 183 188 194 201 210 216 225 231 241 230 232 222 189 178 179 188 182 182 174 170 160 142 135 136 133 122 87 63 37 27 22 10 0 352 339 330 323
191 187 192 185 186 193 184 186 182 182 186 187 188 195 199 209 218 218 228 235 237 240 236 227 215 200 197 203 200 197 192 191 184 175 177 179 179 170 134 43 357 346 350 343 341 333 325 316 305
191 191 193 189 190 195 188 188 192 188 191 194 195 199 208 215 220 226 228 236 234 239 241 236 225 215 207 211 212 213 209 208 202 194 195 206 210 221 230 243 271 299 324 340 343 343 333 321 316
191 194 194 193 191 196 195 191 195 195 194 196 201 204 209 214 220 225 230 231 235 241 242 241 237 225 218 218 219 219 218 215 215 209 213 218 231 239 250 267 289 310 320 327 327 329 330 327 318
191 199 197 197 191 195 194 194 192 198 196 197 204 210 215 221 223 226 225 230 234 239 243 242 239 232 226 226 226 225 222 219 221 221 225 233 240 248 259 275 292 302 310 313 314 313 312 312 307
194 201 200 197 194 195 196 196 197 198 200 204 209 215 222 221 221 223 225 229 234 239 242 244 241 233 225 230 232 231 229 222 223 226 229 238 247 257 267 281 291 298 303 306 308 306 307 309 307
198 202 201 200 199 196 198 199 205 207 207 210 214 219 224 221 222 226 229 231 237 242 245 249 249 244 235 230 234 236 233 229 228 233 236 242 249 259 270 279 289 297 302 305 306 307 311 313 314
202 201 202 204 202 199 200 202 212 217 218 220 219 221 221 222 223 226 233 237 239 245 249 250 250 248 244 238 236 236 239 238 235 235 241 247 254 263 274 285 291 296 297 298 304 308 311 311 310
207 206 209 207 209 208 207 209 208 219 225 224 225 225 225 224 228 232 238 243 245 247 252 255 255 251 247 240 238 236 238 239 238 241 245 251 259 268 275 282 288 291 294 297 302 307 310 311 311
208 208 209 210 213 216 216 214 218 216 221 228 227 224 225 229 232 235 242 249 251 251 253 258 257 250 242 236 233 235 237 237 237 240 246 252 259 265 274 280 281 285 291 296 300 303 305 307 310
211 210 211 213 215 221 222 221 221 217 219 223 231 231 230 230 233 237 242 246 250 254 255 254 252 248 239 233 232 231 236 239 241 245 250 253 260 267 271 271 276 283 290 295 298 305 314 319 320
215 212 215 215 218 221 224 225 222 224 221 225 226 233 238 239 243 247 252 253 254 255 258 258 251 243 239 235 233 238 241 247 248 248 249 256 261 263 266 274 281 286 291 299 305 311 312 313 317
215 214 217 219 220 223 224 228 220 226 227 225 229 233 237 241 242 243 244 248 253 255 255 254 249 242 239 241 241 241 243 243 242 244 247 250 256 261 269 277 284 290 294 297 299 301 312 321 320
218 216 217 220 222 225 225 231 225 228 231 234 235 236 236 241 245 248 251 252 252 252 253 253 248 243 242 239 240 237 236 235 237 241 246 252 259 267 274 280 283 285 288 291 296 305 314 320 320
214 215 218 221 223 226 225 230 230 228 231 235 239 241 243 245 247 251 251 247 243 242 244 246 247 245 244 235 230 229 231 236 243 249 253 259 265 270 276 279 282 285 287 292 299 305 312 316 320
218 216 219 222 224 228 227 231 232 231 233 237 239 241 243 248 247 245 245 244 237 236 238 238 239 243 238 227 226 229 234 242 250 256 260 264 269 272 274 279 281 282 287 294 300 306 311 314 319
216 218 222 226 229 234 235 238 239 236 238 239 240 243 244 245 248 246 236 234 232 231 232 230 229 230 231 231 230 234 240 247 254 260 263 265 266 269 274 277 280 284 291 295 299 305 307 311 316
217 221 220 223 227 234 235 238 239 237 239 242 240 243 245 244 245 245 240 234 229 226 225 222 220 226 228 233 237 241 247 253 258 261 262 262 265 271 274 277 281 285 289 294 298 303 305 309 314
213 215 219 227 232 234 238 240 239 243 242 242 240 237 241 245 244 243 244 237 234 232 230 227 220 224 230 233 238 243 249 255 260 260 261 263 268 272 273 277 282 285 290 294 299 302 305 307 311
219 221 222 222 226 229 235 238 241 238 243 242 237 236 237 239 245 242 237 236 237 237 234 232 229 227 232 236 241 246 253 258 260 261 262 265 269 271 276 280 283 287 293 297 299 300 303 307 312